Time,TemperatureF,DewpointF,PressureIn,WindDirection,WindDirectionDegrees,WindSpeedMPH,WindSpeedGustMPH,Humidity,HourlyPrecipIn,Conditions,Clouds,dailyrainin,SolarRadiationWatts/m^2,SoftwareType,DateUTC
2013-07-18 00:00:00,66.0,52.0,29.96,South,180,3.0,-999.0,61,-99.99,,,0.00,0.0,cwc,2013-07-18 06:00:00,
2013-07-18 00:05:00,65.9,51.9,29.96,South,188,7.0,-999.0,61,-99.99,,,0.00,0.0,cwc,2013-07-18 06:05:00,
2013-07-18 00:10:00,65.8,51.8,29.96,South,184,6.0,-999.0,61,-99.99,,,0.00,0.0,cwc,2013-07-18 06:10:00,
2013-07-18 00:20:00,65.5,51.8,29.97,SSW,200,5.0,-999.0,62,-99.99,,,0.00,0.0,cwc,2013-07-18 06:20:00,
2013-07-18 00:25:00,65.4,51.7,29.97,South,179,4.0,-999.0,62,-99.99,,,0.00,0.0,cwc,2013-07-18 06:25:00,
2013-07-18 00:30:00,65.3,51.6,29.97,SSW,209,5.0,-999.0,62,-99.99,,,0.00,0.0,cwc,2013-07-18 06:30:00,
2013-07-18 00:35:00,65.2,51.5,29.97,South,188,5.0,-999.0,62,-99.99,,,0.00,0.0,cwc,2013-07-18 06:35:00,
2013-07-18 00:45:00,64.9,51.6,29.97,SSW,200,4.0,-999.0,63,-99.99,,,0.00,0.0,cwc,2013-07-18 06:45:00,
2013-07-18 00:50:00,64.8,51.5,29.97,SSW,200,4.0,-999.0,63,-99.99,,,0.00,0.0,cwc,2013-07-18 06:50:00,
2013-07-18 00:55:00,64.7,51.4,29.97,SSE,160,6.0,-999.0,63,-99.99,,,0.00,0.0,cwc,2013-07-18 06:55:00,
2013-07-18 01:00:00,64.6,51.3,29.97,South,184,7.0,-999.0,63,-99.99,,,0.00,0.0,cwc,2013-07-18 07:00:00,
2013-07-18 01:05:00,64.5,51.2,29.97,SSE,163,4.0,-999.0,63,-99.99,,,0.00,0.0,cwc,2013-07-18 07:05:00,
2013-07-18 01:10:00,64.4,51.4,29.97,South,175,3.0,-999.0,64,-99.99,,,0.00,0.0,cwc,2013-07-18 07:10:00,
2013-07-18 01:15:00,64.2,51.2,29.97,South,178,10.0,-999.0,64,-99.99,,,0.00,0.0,cwc,2013-07-18 07:15:00,
2013-07-18 01:20:00,64.1,51.1,29.96,South,175,6.0,-999.0,64,-99.99,,,0.00,0.0,cwc,2013-07-18 07:20:00,
2013-07-18 01:25:00,64.0,51.0,29.96,SSW,203,2.0,-999.0,64,-99.99,,,0.00,0.0,cwc,2013-07-18 07:25:00,
2013-07-18 01:30:00,63.8,51.2,29.96,South,178,1.0,-999.0,65,-99.99,,,0.00,0.0,cwc,2013-07-18 07:30:00,
2013-07-18 01:35:00,63.6,51.0,29.96,South,173,0.0,-999.0,65,-99.99,,,0.00,0.0,cwc,2013-07-18 07:35:00,
2013-07-18 01:40:00,63.5,51.3,29.96,South,173,0.0,-999.0,66,-99.99,,,0.00,0.0,cwc,2013-07-18 07:40:00,
2013-07-18 01:50:00,62.8,50.6,29.97,ESE,110,1.0,-999.0,66,-99.99,,,0.00,0.0,cwc,2013-07-18 07:50:00,
2013-07-18 01:55:00,62.5,50.3,29.97,ESE,107,0.0,-999.0,66,-99.99,,,0.00,0.0,cwc,2013-07-18 07:55:00,
2013-07-18 02:00:00,62.3,50.4,29.96,ESE,107,0.0,-999.0,67,-99.99,,,0.00,0.0,cwc,2013-07-18 08:00:00,
2013-07-18 02:05:00,62.2,50.3,29.96,ESE,107,2.0,-999.0,67,-99.99,,,0.00,0.0,cwc,2013-07-18 08:05:00,
2013-07-18 02:10:00,62.1,50.6,29.96,ESE,106,1.0,-999.0,68,-99.99,,,0.00,0.0,cwc,2013-07-18 08:10:00,
2013-07-18 02:15:00,61.9,50.4,29.96,ESE,106,0.0,-999.0,68,-99.99,,,0.00,0.0,cwc,2013-07-18 08:15:00,
2013-07-18 02:20:00,61.8,50.3,29.97,ESE,107,0.0,-999.0,68,-99.99,,,0.00,0.0,cwc,2013-07-18 08:20:00,
2013-07-18 02:25:00,61.6,50.1,29.96,ESE,107,0.0,-999.0,68,-99.99,,,0.00,0.0,cwc,2013-07-18 08:25:00,
2013-07-18 02:30:00,61.2,50.0,29.96,ESE,107,2.0,-999.0,69,-99.99,,,0.00,0.0,cwc,2013-07-18 08:30:00,
2013-07-18 02:35:00,60.8,50.0,29.96,ESE,106,2.0,-999.0,70,-99.99,,,0.00,0.0,cwc,2013-07-18 08:35:00,
2013-07-18 02:40:00,60.3,49.5,29.96,ESE,107,2.0,-999.0,70,-99.99,,,0.00,0.0,cwc,2013-07-18 08:40:00,
2013-07-18 02:45:00,60.0,49.6,29.96,ESE,107,0.0,-999.0,71,-99.99,,,0.00,0.0,cwc,2013-07-18 08:45:00,
2013-07-18 02:55:00,59.5,49.4,29.96,ESE,107,0.0,-999.0,72,-99.99,,,0.00,0.0,cwc,2013-07-18 08:55:00,
2013-07-18 03:00:00,59.3,49.2,29.96,ESE,106,0.0,-999.0,72,-99.99,,,0.00,0.0,cwc,2013-07-18 09:00:00,
2013-07-18 03:10:00,59.0,48.9,29.95,ESE,106,2.0,-999.0,72,-99.99,,,0.00,0.0,cwc,2013-07-18 09:10:00,
2013-07-18 03:15:00,58.7,49.0,29.96,ESE,107,0.0,-999.0,73,-99.99,,,0.00,0.0,cwc,2013-07-18 09:15:00,
2013-07-18 03:25:00,58.4,49.0,29.95,ESE,106,1.0,-999.0,74,-99.99,,,0.00,0.0,cwc,2013-07-18 09:25:00,
2013-07-18 03:35:00,57.9,48.5,29.95,ESE,107,0.0,-999.0,74,-99.99,,,0.00,0.0,cwc,2013-07-18 09:35:00,
2013-07-18 03:40:00,57.8,48.4,29.95,ESE,107,0.0,-999.0,74,-99.99,,,0.00,0.0,cwc,2013-07-18 09:40:00,
2013-07-18 03:45:00,57.6,47.9,29.95,ESE,106,0.0,-999.0,73,-99.99,,,0.00,0.0,cwc,2013-07-18 09:45:00,
2013-07-18 03:50:00,57.4,47.7,29.95,ESE,106,0.0,-999.0,73,-99.99,,,0.00,0.0,cwc,2013-07-18 09:50:00,
2013-07-18 03:55:00,57.2,47.8,29.95,ESE,107,3.0,-999.0,74,-99.99,,,0.00,0.0,cwc,2013-07-18 09:55:00,
2013-07-18 04:00:00,57.1,47.7,29.95,ESE,107,1.0,-999.0,74,-99.99,,,0.00,0.0,cwc,2013-07-18 10:00:00,
2013-07-18 04:05:00,56.9,47.5,29.95,ESE,107,0.0,-999.0,74,-99.99,,,0.00,0.0,cwc,2013-07-18 10:05:00,
2013-07-18 04:10:00,56.6,47.6,29.95,ESE,106,2.0,-999.0,75,-99.99,,,0.00,0.0,cwc,2013-07-18 10:10:00,
2013-07-18 04:15:00,56.2,47.6,29.95,ESE,107,0.0,-999.0,76,-99.99,,,0.00,0.0,cwc,2013-07-18 10:15:00,
2013-07-18 04:20:00,56.2,47.6,29.95,ESE,106,0.0,-999.0,76,-99.99,,,0.00,0.0,cwc,2013-07-18 10:20:00,
2013-07-18 04:30:00,56.0,47.4,29.95,ESE,106,0.0,-999.0,76,-99.99,,,0.00,0.0,cwc,2013-07-18 10:30:00,
2013-07-18 04:40:00,55.5,46.9,29.96,ESE,107,0.0,-999.0,76,-99.99,,,0.00,0.0,cwc,2013-07-18 10:40:00,
2013-07-18 04:45:00,55.2,46.6,29.96,ESE,106,0.0,-999.0,76,-99.99,,,0.00,0.0,cwc,2013-07-18 10:45:00,
2013-07-18 04:50:00,54.9,46.6,29.96,ESE,107,0.0,-999.0,77,-99.99,,,0.00,0.0,cwc,2013-07-18 10:50:00,
2013-07-18 04:55:00,54.8,46.5,29.96,ESE,107,0.0,-999.0,77,-99.99,,,0.00,0.0,cwc,2013-07-18 10:55:00,
2013-07-18 05:00:00,54.9,46.6,29.96,ESE,107,0.0,-999.0,77,-99.99,,,0.00,0.0,cwc,2013-07-18 11:00:00,
2013-07-18 05:05:00,54.7,46.4,29.96,ESE,106,2.0,-999.0,77,-99.99,,,0.00,0.0,cwc,2013-07-18 11:05:00,
2013-07-18 05:10:00,54.2,46.3,29.96,ESE,107,4.0,-999.0,78,-99.99,,,0.00,0.0,cwc,2013-07-18 11:10:00,
2013-07-18 05:15:00,53.9,46.0,29.97,ESE,107,3.0,-999.0,78,-99.99,,,0.00,0.0,cwc,2013-07-18 11:15:00,
2013-07-18 05:20:00,53.6,46.0,29.97,ESE,107,0.0,-999.0,79,-99.99,,,0.00,0.0,cwc,2013-07-18 11:20:00,
2013-07-18 05:30:00,53.3,46.1,29.97,ESE,107,0.0,-999.0,80,-99.99,,,0.00,0.0,cwc,2013-07-18 11:30:00,
2013-07-18 05:35:00,53.5,46.3,29.97,ESE,106,0.0,-999.0,80,-99.99,,,0.00,0.0,cwc,2013-07-18 11:35:00,
2013-07-18 05:40:00,53.5,45.9,29.97,ESE,107,0.0,-999.0,79,-99.99,,,0.00,0.0,cwc,2013-07-18 11:40:00,
2013-07-18 05:50:00,53.0,45.4,29.98,ESE,107,0.0,-999.0,79,-99.99,,,0.00,0.0,cwc,2013-07-18 11:50:00,
2013-07-18 05:55:00,52.7,45.5,29.98,ESE,107,2.0,-999.0,80,-99.99,,,0.00,0.0,cwc,2013-07-18 11:55:00,
2013-07-18 06:00:00,52.4,45.6,29.97,ESE,107,0.0,-999.0,81,-99.99,,,0.00,0.0,cwc,2013-07-18 12:00:00,
2013-07-18 06:10:00,52.3,45.8,29.97,ESE,107,0.0,-999.0,82,-99.99,,,0.00,7.0,cwc,2013-07-18 12:10:00,
2013-07-18 06:15:00,52.3,45.1,29.97,ESE,107,0.0,-999.0,80,-99.99,,,0.00,9.0,cwc,2013-07-18 12:15:00,
2013-07-18 06:20:00,52.2,45.0,29.98,ESE,107,0.0,-999.0,80,-99.99,,,0.00,11.0,cwc,2013-07-18 12:20:00,
2013-07-18 06:25:00,52.1,45.3,29.98,ESE,107,0.0,-999.0,81,-99.99,,,0.00,14.0,cwc,2013-07-18 12:25:00,
2013-07-18 06:30:00,52.0,45.5,29.98,ESE,107,1.0,-999.0,82,-99.99,,,0.00,16.0,cwc,2013-07-18 12:30:00,
2013-07-18 06:35:00,52.2,45.7,29.97,ESE,106,0.0,-999.0,82,-99.99,,,0.00,21.0,cwc,2013-07-18 12:35:00,
2013-07-18 06:40:00,52.4,45.9,29.98,ESE,107,0.0,-999.0,82,-99.99,,,0.00,53.0,cwc,2013-07-18 12:40:00,
2013-07-18 06:45:00,52.9,46.1,29.97,ESE,107,3.0,-999.0,81,-99.99,,,0.00,67.0,cwc,2013-07-18 12:45:00,
2013-07-18 06:50:00,53.7,46.1,29.98,ESE,107,0.0,-999.0,79,-99.99,,,0.00,54.0,cwc,2013-07-18 12:50:00,
2013-07-18 06:55:00,54.4,46.1,29.98,ESE,106,0.0,-999.0,77,-99.99,,,0.00,90.0,cwc,2013-07-18 12:55:00,
2013-07-18 07:00:00,55.0,46.0,29.97,ESE,107,0.0,-999.0,75,-99.99,,,0.00,121.0,cwc,2013-07-18 13:00:00,
2013-07-18 07:05:00,55.7,46.3,29.98,ESE,107,2.0,-999.0,74,-99.99,,,0.00,134.0,cwc,2013-07-18 13:05:00,
2013-07-18 07:10:00,56.4,46.3,29.98,ESE,107,0.0,-999.0,72,-99.99,,,0.00,158.0,cwc,2013-07-18 13:10:00,
2013-07-18 07:15:00,57.2,46.8,29.98,ESE,106,0.0,-999.0,71,-99.99,,,0.00,174.0,cwc,2013-07-18 13:15:00,
2013-07-18 07:20:00,57.9,47.1,29.98,ESE,107,0.0,-999.0,70,-99.99,,,0.00,193.0,cwc,2013-07-18 13:20:00,
2013-07-18 07:25:00,58.6,47.1,29.98,ESE,107,0.0,-999.0,68,-99.99,,,0.00,216.0,cwc,2013-07-18 13:25:00,
2013-07-18 07:30:00,59.0,46.8,29.97,ESE,107,0.0,-999.0,66,-99.99,,,0.00,236.0,cwc,2013-07-18 13:30:00,
2013-07-18 07:35:00,59.8,47.2,29.97,ESE,107,0.0,-999.0,65,-99.99,,,0.00,251.0,cwc,2013-07-18 13:35:00,
2013-07-18 07:45:00,60.6,46.9,29.97,ESE,107,0.0,-999.0,62,-99.99,,,0.00,281.0,cwc,2013-07-18 13:45:00,
2013-07-18 07:50:00,61.1,47.1,29.97,ESE,106,1.0,-999.0,61,-99.99,,,0.00,301.0,cwc,2013-07-18 13:50:00,
2013-07-18 07:55:00,61.6,47.2,29.97,ESE,106,0.0,-999.0,60,-99.99,,,0.00,318.0,cwc,2013-07-18 13:55:00,
2013-07-18 08:00:00,62.1,47.7,29.97,ESE,107,0.0,-999.0,60,-99.99,,,0.00,332.0,cwc,2013-07-18 14:00:00,
2013-07-18 08:05:00,62.8,48.8,29.97,ESE,107,4.0,-999.0,61,-99.99,,,0.00,353.0,cwc,2013-07-18 14:05:00,
2013-07-18 08:10:00,63.4,48.6,29.97,ESE,106,0.0,-999.0,59,-99.99,,,0.00,369.0,cwc,2013-07-18 14:10:00,
2013-07-18 08:15:00,64.1,48.6,29.96,ESE,107,2.0,-999.0,57,-99.99,,,0.00,383.0,cwc,2013-07-18 14:15:00,
2013-07-18 08:20:00,64.3,48.8,29.97,ESE,107,1.0,-999.0,57,-99.99,,,0.00,401.0,cwc,2013-07-18 14:20:00,
2013-07-18 08:25:00,64.7,49.2,29.96,ESE,106,2.0,-999.0,57,-99.99,,,0.00,417.0,cwc,2013-07-18 14:25:00,
2013-07-18 08:30:00,65.1,49.3,29.96,ESE,106,0.0,-999.0,56,-99.99,,,0.00,434.0,cwc,2013-07-18 14:30:00,
2013-07-18 08:35:00,65.7,49.9,29.96,ESE,107,0.0,-999.0,56,-99.99,,,0.00,452.0,cwc,2013-07-18 14:35:00,
2013-07-18 08:40:00,66.3,50.5,29.96,ESE,107,0.0,-999.0,56,-99.99,,,0.00,466.0,cwc,2013-07-18 14:40:00,
2013-07-18 08:45:00,66.6,50.4,29.96,ESE,106,0.0,-999.0,55,-99.99,,,0.00,482.0,cwc,2013-07-18 14:45:00,
2013-07-18 08:50:00,67.1,50.9,29.95,ESE,107,1.0,-999.0,55,-99.99,,,0.00,499.0,cwc,2013-07-18 14:50:00,
2013-07-18 08:55:00,67.7,51.5,29.95,ESE,107,2.0,-999.0,55,-99.99,,,0.00,517.0,cwc,2013-07-18 14:55:00,
2013-07-18 09:00:00,68.0,51.4,29.95,ESE,106,0.0,-999.0,54,-99.99,,,0.00,533.0,cwc,2013-07-18 15:00:00,
2013-07-18 09:05:00,68.3,52.1,29.95,ESE,106,0.0,-999.0,55,-99.99,,,0.00,548.0,cwc,2013-07-18 15:05:00,
2013-07-18 09:10:00,68.6,51.7,29.95,ESE,107,3.0,-999.0,53,-99.99,,,0.00,566.0,cwc,2013-07-18 15:10:00,
2013-07-18 09:15:00,68.8,52.2,29.94,ESE,107,0.0,-999.0,54,-99.99,,,0.00,578.0,cwc,2013-07-18 15:15:00,
2013-07-18 09:20:00,69.4,52.5,29.94,ESE,107,0.0,-999.0,53,-99.99,,,0.00,594.0,cwc,2013-07-18 15:20:00,
2013-07-18 09:25:00,70.0,52.4,29.93,ESE,106,3.0,-999.0,51,-99.99,,,0.00,605.0,cwc,2013-07-18 15:25:00,
2013-07-18 09:30:00,70.5,52.5,29.93,ESE,106,3.0,-999.0,50,-99.99,,,0.00,621.0,cwc,2013-07-18 15:30:00,
2013-07-18 09:40:00,71.6,52.9,29.92,ESE,106,3.0,-999.0,48,-99.99,,,0.00,652.0,cwc,2013-07-18 15:40:00,
2013-07-18 09:45:00,72.2,53.1,29.92,East,101,3.0,-999.0,47,-99.99,,,0.00,668.0,cwc,2013-07-18 15:45:00,
2013-07-18 09:50:00,72.2,53.1,29.91,North,349,4.0,-999.0,47,-99.99,,,0.00,680.0,cwc,2013-07-18 15:50:00,
2013-07-18 09:55:00,72.6,53.2,29.91,North,349,0.0,-999.0,46,-99.99,,,0.00,694.0,cwc,2013-07-18 15:55:00,
2013-07-18 10:00:00,73.0,53.6,29.91,North,350,3.0,-999.0,46,-99.99,,,0.00,705.0,cwc,2013-07-18 16:00:00,
2013-07-18 10:05:00,73.4,53.6,29.91,North,360,4.0,-999.0,45,-99.99,,,0.00,719.0,cwc,2013-07-18 16:05:00,
2013-07-18 10:10:00,73.9,54.1,29.91,North,360,2.0,-999.0,45,-99.99,,,0.00,733.0,cwc,2013-07-18 16:10:00,
2013-07-18 10:15:00,74.4,54.2,29.90,North,5,2.0,-999.0,44,-99.99,,,0.00,745.0,cwc,2013-07-18 16:15:00,
2013-07-18 10:20:00,74.3,54.1,29.90,NNW,331,1.0,-999.0,44,-99.99,,,0.00,758.0,cwc,2013-07-18 16:20:00,
2013-07-18 10:25:00,74.8,54.3,29.90,NNW,332,0.0,-999.0,43,-99.99,,,0.00,772.0,cwc,2013-07-18 16:25:00,
2013-07-18 10:30:00,75.0,54.1,29.90,SW,232,0.0,-999.0,42,-99.99,,,0.00,780.0,cwc,2013-07-18 16:30:00,
2013-07-18 10:35:00,75.5,54.3,29.90,SW,215,4.0,-999.0,41,-99.99,,,0.00,793.0,cwc,2013-07-18 16:35:00,
2013-07-18 10:40:00,75.7,54.5,29.90,SSW,198,0.0,-999.0,41,-99.99,,,0.00,803.0,cwc,2013-07-18 16:40:00,
2013-07-18 10:45:00,75.4,54.5,29.89,South,180,1.0,-999.0,42,-99.99,,,0.00,816.0,cwc,2013-07-18 16:45:00,
2013-07-18 10:50:00,75.1,53.9,29.89,SSE,167,6.0,-999.0,41,-99.99,,,0.00,823.0,cwc,2013-07-18 16:50:00,
2013-07-18 10:55:00,74.8,53.6,29.89,SSE,167,2.0,-999.0,41,-99.99,,,0.00,835.0,cwc,2013-07-18 16:55:00,
2013-07-18 11:00:00,75.0,53.8,29.89,South,169,0.0,-999.0,41,-99.99,,,0.00,846.0,cwc,2013-07-18 17:00:00,
2013-07-18 11:05:00,75.6,54.0,29.89,South,169,0.0,-999.0,40,-99.99,,,0.00,856.0,cwc,2013-07-18 17:05:00,
2013-07-18 11:10:00,75.9,53.9,29.88,SSW,195,0.0,-999.0,39,-99.99,,,0.00,867.0,cwc,2013-07-18 17:10:00,
2013-07-18 11:15:00,76.1,53.8,29.88,SSW,196,9.0,-999.0,38,-99.99,,,0.00,874.0,cwc,2013-07-18 17:15:00,
2013-07-18 11:20:00,76.2,53.9,29.88,SSE,168,1.0,-999.0,38,-99.99,,,0.00,882.0,cwc,2013-07-18 17:20:00,
2013-07-18 11:25:00,76.4,54.1,29.88,South,187,3.0,-999.0,38,-99.99,,,0.00,889.0,cwc,2013-07-18 17:25:00,
2013-07-18 11:30:00,76.3,54.0,29.87,South,190,6.0,-999.0,38,-99.99,,,0.00,898.0,cwc,2013-07-18 17:30:00,
2013-07-18 11:40:00,76.5,54.5,29.86,South,178,5.0,-999.0,39,-99.99,,,0.00,911.0,cwc,2013-07-18 17:40:00,
2013-07-18 11:45:00,76.7,54.0,29.86,SSW,196,4.0,-999.0,37,-99.99,,,0.00,919.0,cwc,2013-07-18 17:45:00,
2013-07-18 11:50:00,76.9,54.6,29.86,South,191,0.0,-999.0,38,-99.99,,,0.00,923.0,cwc,2013-07-18 17:50:00,
2013-07-18 11:55:00,77.4,54.7,29.86,SSE,159,6.0,-999.0,37,-99.99,,,0.00,933.0,cwc,2013-07-18 17:55:00,
2013-07-18 12:00:00,77.5,54.8,29.86,SSW,205,12.0,-999.0,37,-99.99,,,0.00,939.0,cwc,2013-07-18 18:00:00,
2013-07-18 12:05:00,77.6,54.9,29.86,SSE,168,7.0,-999.0,37,-99.99,,,0.00,944.0,cwc,2013-07-18 18:05:00,
2013-07-18 12:15:00,79.1,55.7,29.85,SW,234,7.0,-999.0,35,-99.99,,,0.00,956.0,cwc,2013-07-18 18:15:00,
2013-07-18 12:20:00,79.4,56.0,29.85,WSW,246,4.0,-999.0,35,-99.99,,,0.00,958.0,cwc,2013-07-18 18:20:00,
2013-07-18 12:25:00,79.4,56.0,29.85,SSW,205,1.0,-999.0,35,-99.99,,,0.00,963.0,cwc,2013-07-18 18:25:00,
2013-07-18 12:30:00,79.8,56.4,29.85,SSE,168,0.0,-999.0,35,-99.99,,,0.00,969.0,cwc,2013-07-18 18:30:00,
2013-07-18 12:35:00,80.0,56.2,29.85,South,171,6.0,-999.0,34,-99.99,,,0.00,967.0,cwc,2013-07-18 18:35:00,
2013-07-18 12:40:00,80.2,56.4,29.84,SE,124,1.0,-999.0,34,-99.99,,,0.00,970.0,cwc,2013-07-18 18:40:00,
2013-07-18 12:45:00,80.6,56.8,29.84,South,185,8.0,-999.0,34,-99.99,,,0.00,974.0,cwc,2013-07-18 18:45:00,
2013-07-18 12:50:00,80.4,56.3,29.84,SW,227,1.0,-999.0,33,-99.99,,,0.00,976.0,cwc,2013-07-18 18:50:00,
2013-07-18 12:55:00,80.6,56.5,29.83,South,190,3.0,-999.0,33,-99.99,,,0.00,976.0,cwc,2013-07-18 18:55:00,
2013-07-18 13:00:00,81.0,56.5,29.83,SSE,161,7.0,-999.0,32,-99.99,,,0.00,979.0,cwc,2013-07-18 19:00:00,
2013-07-18 13:05:00,81.1,57.0,29.83,SSE,158,4.0,-999.0,33,-99.99,,,0.00,977.0,cwc,2013-07-18 19:05:00,
2013-07-18 13:15:00,81.9,57.1,29.82,SSW,209,12.0,-999.0,31,-99.99,,,0.00,981.0,cwc,2013-07-18 19:15:00,
2013-07-18 13:20:00,82.2,57.4,29.82,South,174,10.0,-999.0,31,-99.99,,,0.00,979.0,cwc,2013-07-18 19:20:00,
2013-07-18 13:30:00,82.5,57.3,29.81,SSE,152,7.0,-999.0,30,-99.99,,,0.00,979.0,cwc,2013-07-18 19:30:00,
2013-07-18 13:35:00,82.2,57.4,29.81,SSW,197,7.0,-999.0,31,-99.99,,,0.00,976.0,cwc,2013-07-18 19:35:00,
2013-07-18 13:40:00,82.4,57.2,29.81,SSE,157,8.0,-999.0,30,-99.99,,,0.00,977.0,cwc,2013-07-18 19:40:00,
2013-07-18 13:45:00,83.0,57.8,29.81,South,182,9.0,-999.0,30,-99.99,,,0.00,972.0,cwc,2013-07-18 19:45:00,
2013-07-18 13:50:00,83.2,58.0,29.80,South,175,5.0,-999.0,30,-99.99,,,0.00,974.0,cwc,2013-07-18 19:50:00,
2013-07-18 13:55:00,83.5,58.3,29.80,South,173,9.0,-999.0,30,-99.99,,,0.00,970.0,cwc,2013-07-18 19:55:00,
2013-07-18 14:00:00,83.9,58.7,29.80,SSW,197,8.0,-999.0,30,-99.99,,,0.00,970.0,cwc,2013-07-18 20:00:00,
2013-07-18 14:05:00,84.0,58.8,29.79,SSW,196,12.0,-999.0,30,-99.99,,,0.00,967.0,cwc,2013-07-18 20:05:00,
2013-07-18 14:10:00,83.3,58.1,29.79,SSW,205,8.0,-999.0,30,-99.99,,,0.00,963.0,cwc,2013-07-18 20:10:00,
2013-07-18 14:15:00,83.5,58.3,29.79,SW,226,6.0,-999.0,30,-99.99,,,0.00,962.0,cwc,2013-07-18 20:15:00,
2013-07-18 14:20:00,83.5,58.3,29.78,SSE,163,7.0,-999.0,30,-99.99,,,0.00,963.0,cwc,2013-07-18 20:20:00,
2013-07-18 14:25:00,83.6,58.4,29.79,SSW,206,9.0,-999.0,30,-99.99,,,0.00,967.0,cwc,2013-07-18 20:25:00,
2013-07-18 14:30:00,83.9,58.7,29.78,SSW,192,17.0,-999.0,30,-99.99,,,0.00,972.0,cwc,2013-07-18 20:30:00,
2013-07-18 14:35:00,83.6,58.4,29.77,WSW,246,2.0,-999.0,30,-99.99,,,0.00,981.0,cwc,2013-07-18 20:35:00,
2013-07-18 14:40:00,84.1,58.9,29.77,South,190,13.0,-999.0,30,-99.99,,,0.00,1016.0,cwc,2013-07-18 20:40:00,
2013-07-18 14:45:00,84.2,59.0,29.77,SE,130,9.0,-999.0,30,-99.99,,,0.00,1100.0,cwc,2013-07-18 20:45:00,
2013-07-18 14:55:00,84.0,58.8,29.77,South,185,14.0,-999.0,30,-99.99,,,0.00,570.0,cwc,2013-07-18 20:55:00,
2013-07-18 15:00:00,83.9,58.7,29.76,SSW,198,11.0,-999.0,30,-99.99,,,0.00,729.0,cwc,2013-07-18 21:00:00,
2013-07-18 15:05:00,83.9,59.1,29.76,South,182,0.0,-999.0,31,-99.99,,,0.00,967.0,cwc,2013-07-18 21:05:00,
2013-07-18 15:10:00,84.3,59.5,29.76,South,185,16.0,-999.0,31,-99.99,,,0.00,918.0,cwc,2013-07-18 21:10:00,
2013-07-18 15:15:00,84.4,59.2,29.76,SW,217,6.0,-999.0,30,-99.99,,,0.00,851.0,cwc,2013-07-18 21:15:00,
2013-07-18 15:25:00,84.8,59.6,29.76,SW,227,5.0,-999.0,30,-99.99,,,0.00,802.0,cwc,2013-07-18 21:25:00,
2013-07-18 15:30:00,85.4,60.2,29.75,SSW,200,13.0,-999.0,30,-99.99,,,0.00,884.0,cwc,2013-07-18 21:30:00,
2013-07-18 15:35:00,86.1,60.5,29.75,SSE,161,4.0,-999.0,29,-99.99,,,0.00,777.0,cwc,2013-07-18 21:35:00,
2013-07-18 15:40:00,85.7,60.1,29.75,SSE,164,5.0,-999.0,29,-99.99,,,0.00,661.0,cwc,2013-07-18 21:40:00,
2013-07-18 15:45:00,85.4,60.2,29.75,SSE,154,6.0,-999.0,30,-99.99,,,0.00,645.0,cwc,2013-07-18 21:45:00,
2013-07-18 15:55:00,85.5,60.3,29.75,SSW,199,7.0,-999.0,30,-99.99,,,0.00,635.0,cwc,2013-07-18 21:55:00,
2013-07-18 16:00:00,85.4,60.2,29.75,SSW,198,10.0,-999.0,30,-99.99,,,0.00,388.0,cwc,2013-07-18 22:00:00,
2013-07-18 16:10:00,85.7,60.1,29.74,SSW,207,10.0,-999.0,29,-99.99,,,0.00,772.0,cwc,2013-07-18 22:10:00,
2013-07-18 16:15:00,85.5,59.9,29.74,ESE,121,5.0,-999.0,29,-99.99,,,0.00,292.0,cwc,2013-07-18 22:15:00,
2013-07-18 16:20:00,85.2,60.0,29.74,SSE,161,3.0,-999.0,30,-99.99,,,0.00,292.0,cwc,2013-07-18 22:20:00,
2013-07-18 16:25:00,85.0,59.8,29.73,SSE,160,3.0,-999.0,30,-99.99,,,0.00,686.0,cwc,2013-07-18 22:25:00,
2013-07-18 16:30:00,85.8,60.2,29.73,South,191,11.0,-999.0,29,-99.99,,,0.00,696.0,cwc,2013-07-18 22:30:00,
2013-07-18 16:35:00,85.7,60.1,29.73,SW,226,7.0,-999.0,29,-99.99,,,0.00,619.0,cwc,2013-07-18 22:35:00,
2013-07-18 16:40:00,85.6,60.0,29.72,SSE,150,4.0,-999.0,29,-99.99,,,0.00,663.0,cwc,2013-07-18 22:40:00,
2013-07-18 16:45:00,86.0,60.4,29.71,SSE,153,6.0,-999.0,29,-99.99,,,0.00,673.0,cwc,2013-07-18 22:45:00,
2013-07-18 16:50:00,86.6,61.0,29.71,SSE,147,10.0,-999.0,29,-99.99,,,0.00,700.0,cwc,2013-07-18 22:50:00,
2013-07-18 17:00:00,87.1,61.2,29.70,SSW,197,12.0,-999.0,28,-99.99,,,0.00,708.0,cwc,2013-07-18 23:00:00,
2013-07-18 17:05:00,87.1,61.2,29.70,SSE,165,1.0,-999.0,28,-99.99,,,0.00,633.0,cwc,2013-07-18 23:05:00,
2013-07-18 17:10:00,86.6,60.7,29.70,South,187,7.0,-999.0,28,-99.99,,,0.00,496.0,cwc,2013-07-18 23:10:00,
2013-07-18 17:15:00,85.9,60.3,29.70,WSW,244,5.0,-999.0,29,-99.99,,,0.00,501.0,cwc,2013-07-18 23:15:00,
2013-07-18 17:20:00,85.6,60.0,29.70,SSW,198,15.0,-999.0,29,-99.99,,,0.00,461.0,cwc,2013-07-18 23:20:00,
2013-07-18 17:25:00,85.6,60.0,29.69,SSE,165,0.0,-999.0,29,-99.99,,,0.00,434.0,cwc,2013-07-18 23:25:00,
2013-07-18 17:30:00,85.6,60.4,29.69,South,186,12.0,-999.0,30,-99.99,,,0.00,369.0,cwc,2013-07-18 23:30:00,
2013-07-18 17:35:00,85.2,60.0,29.69,SSE,159,6.0,-999.0,30,-99.99,,,0.00,496.0,cwc,2013-07-18 23:35:00,
2013-07-18 17:45:00,85.3,59.7,29.69,SSW,192,9.0,-999.0,29,-99.99,,,0.00,548.0,cwc,2013-07-18 23:45:00,
2013-07-18 17:50:00,85.7,60.5,29.69,SSW,194,6.0,-999.0,30,-99.99,,,0.00,501.0,cwc,2013-07-18 23:50:00,
2013-07-18 17:55:00,85.7,60.1,29.69,SSW,209,13.0,-999.0,29,-99.99,,,0.00,466.0,cwc,2013-07-18 23:55:00,
2013-07-18 18:00:00,85.2,59.6,29.69,West,280,9.0,-999.0,29,-99.99,,,0.00,257.0,cwc,2013-07-19 00:00:00,
2013-07-18 18:05:00,84.8,59.2,29.69,SW,225,7.0,-999.0,29,-99.99,,,0.00,281.0,cwc,2013-07-19 00:05:00,
2013-07-18 18:10:00,84.5,59.3,29.69,West,259,7.0,-999.0,30,-99.99,,,0.00,297.0,cwc,2013-07-19 00:10:00,
2013-07-18 18:15:00,84.5,59.3,29.69,SSE,151,2.0,-999.0,30,-99.99,,,0.00,308.0,cwc,2013-07-19 00:15:00,
2013-07-18 18:20:00,84.5,59.3,29.69,SSE,163,5.0,-999.0,30,-99.99,,,0.00,241.0,cwc,2013-07-19 00:20:00,
2013-07-18 18:25:00,84.1,58.9,29.69,South,178,7.0,-999.0,30,-99.99,,,0.00,237.0,cwc,2013-07-19 00:25:00,
2013-07-18 18:30:00,84.0,58.8,29.69,SW,219,6.0,-999.0,30,-99.99,,,0.00,197.0,cwc,2013-07-19 00:30:00,
2013-07-18 18:40:00,83.6,58.8,29.69,South,180,5.0,-999.0,31,-99.99,,,0.00,53.0,cwc,2013-07-19 00:40:00,
2013-07-18 18:45:00,83.5,58.7,29.70,South,180,10.0,-999.0,31,-99.99,,,0.00,47.0,cwc,2013-07-19 00:45:00,
2013-07-18 18:50:00,83.3,58.5,29.70,South,191,18.0,-999.0,31,-99.99,,,0.00,42.0,cwc,2013-07-19 00:50:00,
2013-07-18 18:55:00,82.9,58.4,29.70,SSW,202,10.0,-999.0,32,-99.99,,,0.00,40.0,cwc,2013-07-19 00:55:00,
2013-07-18 19:00:00,82.6,58.1,29.70,South,175,6.0,-999.0,32,-99.99,,,0.00,37.0,cwc,2013-07-19 01:00:00,
2013-07-18 19:05:00,82.4,57.9,29.70,South,191,10.0,-999.0,32,-99.99,,,0.00,35.0,cwc,2013-07-19 01:05:00,
2013-07-18 19:10:00,82.2,57.7,29.70,SSW,213,9.0,-999.0,32,-99.99,,,0.00,35.0,cwc,2013-07-19 01:10:00,
2013-07-18 19:15:00,82.0,57.9,29.70,SSW,210,10.0,-999.0,33,-99.99,,,0.00,33.0,cwc,2013-07-19 01:15:00,
2013-07-18 19:20:00,81.9,57.8,29.70,SSW,200,12.0,-999.0,33,-99.99,,,0.00,30.0,cwc,2013-07-19 01:20:00,
2013-07-18 19:25:00,81.7,57.6,29.70,SSW,205,10.0,-999.0,33,-99.99,,,0.00,26.0,cwc,2013-07-19 01:25:00,
2013-07-18 19:30:00,81.5,57.4,29.70,South,191,11.0,-999.0,33,-99.99,,,0.00,25.0,cwc,2013-07-19 01:30:00,
2013-07-18 19:40:00,81.2,57.1,29.71,SW,219,8.0,-999.0,33,-99.99,,,0.00,16.0,cwc,2013-07-19 01:40:00,
2013-07-18 19:45:00,81.2,57.1,29.71,SW,228,4.0,-999.0,33,-99.99,,,0.00,12.0,cwc,2013-07-19 01:45:00,
2013-07-18 19:55:00,80.8,57.0,29.71,South,176,5.0,-999.0,34,-99.99,,,0.00,7.0,cwc,2013-07-19 01:55:00,
2013-07-18 20:00:00,80.6,56.8,29.71,SSW,213,7.0,-999.0,34,-99.99,,,0.00,5.0,cwc,2013-07-19 02:00:00,
2013-07-18 20:05:00,80.5,56.7,29.71,SSE,152,16.0,-999.0,34,-99.99,,,0.00,0.0,cwc,2013-07-19 02:05:00,
2013-07-18 20:10:00,80.4,57.0,29.72,SSW,204,8.0,-999.0,35,-99.99,,,0.00,0.0,cwc,2013-07-19 02:10:00,
2013-07-18 20:15:00,80.2,56.8,29.72,South,190,12.0,-999.0,35,-99.99,,,0.00,0.0,cwc,2013-07-19 02:15:00,
2013-07-18 20:20:00,80.1,56.7,29.72,South,171,6.0,-999.0,35,-99.99,,,0.00,0.0,cwc,2013-07-19 02:20:00,
2013-07-18 20:25:00,79.8,56.8,29.72,SSW,200,8.0,-999.0,36,-99.99,,,0.00,0.0,cwc,2013-07-19 02:25:00,
2013-07-18 20:30:00,79.7,56.7,29.72,SSW,205,10.0,-999.0,36,-99.99,,,0.00,0.0,cwc,2013-07-19 02:30:00,
2013-07-18 20:35:00,79.5,56.5,29.72,South,172,6.0,-999.0,36,-99.99,,,0.00,0.0,cwc,2013-07-19 02:35:00,
2013-07-18 20:45:00,79.2,56.5,29.72,SSE,167,8.0,-999.0,37,-99.99,,,0.00,0.0,cwc,2013-07-19 02:45:00,
2013-07-18 20:50:00,79.0,56.3,29.73,SSW,211,9.0,-999.0,37,-99.99,,,0.00,0.0,cwc,2013-07-19 02:50:00,
2013-07-18 20:55:00,78.9,56.2,29.73,South,180,3.0,-999.0,37,-99.99,,,0.00,0.0,cwc,2013-07-19 02:55:00,
2013-07-18 21:00:00,78.7,56.0,29.73,South,190,7.0,-999.0,37,-99.99,,,0.00,0.0,cwc,2013-07-19 03:00:00,
2013-07-18 21:05:00,78.7,56.0,29.73,SSE,157,6.0,-999.0,37,-99.99,,,0.00,0.0,cwc,2013-07-19 03:05:00,
2013-07-18 21:10:00,78.7,56.4,29.73,SW,215,6.0,-999.0,38,-99.99,,,0.00,0.0,cwc,2013-07-19 03:10:00,
2013-07-18 21:15:00,78.4,56.1,29.73,South,170,5.0,-999.0,38,-99.99,,,0.00,0.0,cwc,2013-07-19 03:15:00,
2013-07-18 21:20:00,78.3,56.0,29.74,SSW,194,7.0,-999.0,38,-99.99,,,0.00,0.0,cwc,2013-07-19 03:20:00,
2013-07-18 21:25:00,78.2,55.9,29.74,SSW,198,14.0,-999.0,38,-99.99,,,0.00,0.0,cwc,2013-07-19 03:25:00,
2013-07-18 21:30:00,78.0,56.0,29.74,South,183,5.0,-999.0,39,-99.99,,,0.00,0.0,cwc,2013-07-19 03:30:00,
2013-07-18 21:35:00,77.8,55.8,29.75,SSE,161,8.0,-999.0,39,-99.99,,,0.00,0.0,cwc,2013-07-19 03:35:00,
2013-07-18 21:40:00,77.6,55.6,29.75,South,172,10.0,-999.0,39,-99.99,,,0.00,0.0,cwc,2013-07-19 03:40:00,
2013-07-18 21:50:00,77.3,55.7,29.75,SSW,194,7.0,-999.0,40,-99.99,,,0.00,0.0,cwc,2013-07-19 03:50:00,
2013-07-18 21:55:00,77.1,55.5,29.75,SW,216,10.0,-999.0,40,-99.99,,,0.00,0.0,cwc,2013-07-19 03:55:00,
2013-07-18 22:00:00,76.9,55.7,29.75,SSW,193,9.0,-999.0,41,-99.99,,,0.00,0.0,cwc,2013-07-19 04:00:00,
2013-07-18 22:05:00,76.6,55.4,29.75,South,184,6.0,-999.0,41,-99.99,,,0.00,0.0,cwc,2013-07-19 04:05:00,
2013-07-18 22:10:00,76.4,55.2,29.76,SSE,163,6.0,-999.0,41,-99.99,,,0.00,0.0,cwc,2013-07-19 04:10:00,
2013-07-18 22:15:00,76.2,55.0,29.76,South,181,3.0,-999.0,41,-99.99,,,0.00,0.0,cwc,2013-07-19 04:15:00,
2013-07-18 22:20:00,76.1,55.2,29.76,SSE,159,6.0,-999.0,42,-99.99,,,0.00,0.0,cwc,2013-07-19 04:20:00,
2013-07-18 22:25:00,76.1,55.2,29.77,South,182,8.0,-999.0,42,-99.99,,,0.00,0.0,cwc,2013-07-19 04:25:00,
2013-07-18 22:30:00,76.0,55.1,29.77,SSW,209,10.0,-999.0,42,-99.99,,,0.00,0.0,cwc,2013-07-19 04:30:00,
2013-07-18 22:35:00,76.0,55.1,29.78,South,184,4.0,-999.0,42,-99.99,,,0.00,0.0,cwc,2013-07-19 04:35:00,
2013-07-18 22:40:00,75.9,55.4,29.78,South,183,1.0,-999.0,43,-99.99,,,0.00,0.0,cwc,2013-07-19 04:40:00,
2013-07-18 22:45:00,75.8,55.3,29.79,North,360,3.0,-999.0,43,-99.99,,,0.00,0.0,cwc,2013-07-19 04:45:00,
2013-07-18 22:50:00,75.7,55.2,29.80,North,5,2.0,-999.0,43,-99.99,,,0.00,0.0,cwc,2013-07-19 04:50:00,
2013-07-18 22:55:00,75.6,54.7,29.79,North,5,0.0,-999.0,42,-99.99,,,0.00,0.0,cwc,2013-07-19 04:55:00,
2013-07-18 23:00:00,75.5,54.6,29.79,NNW,347,6.0,-999.0,42,-99.99,,,0.00,0.0,cwc,2013-07-19 05:00:00,
2013-07-18 23:10:00,74.7,54.5,29.80,NNE,12,4.0,-999.0,44,-99.99,,,0.00,0.0,cwc,2013-07-19 05:10:00,
2013-07-18 23:15:00,73.9,54.5,29.80,North,360,5.0,-999.0,46,-99.99,,,0.00,0.0,cwc,2013-07-19 05:15:00,
2013-07-18 23:20:00,73.1,54.0,29.80,NE,45,11.0,-999.0,47,-99.99,,,0.00,0.0,cwc,2013-07-19 05:20:00,
2013-07-18 23:25:00,72.6,53.5,29.80,North,5,4.0,-999.0,47,-99.99,,,0.00,0.0,cwc,2013-07-19 05:25:00,
2013-07-18 23:30:00,72.2,53.5,29.80,NNE,15,8.0,-999.0,48,-99.99,,,0.00,0.0,cwc,2013-07-19 05:30:00,
2013-07-18 23:35:00,71.9,53.2,29.81,NNW,339,9.0,-999.0,48,-99.99,,,0.00,0.0,cwc,2013-07-19 05:35:00,
2013-07-18 23:40:00,71.7,53.3,29.81,North,11,5.0,-999.0,49,-99.99,,,0.00,0.0,cwc,2013-07-19 05:40:00,
2013-07-18 23:45:00,71.5,53.1,29.81,NE,44,6.0,-999.0,49,-99.99,,,0.00,0.0,cwc,2013-07-19 05:45:00,
2013-07-18 23:50:00,71.5,53.1,29.81,North,355,8.0,-999.0,49,-99.99,,,0.00,0.0,cwc,2013-07-19 05:50:00,
2013-07-18 23:55:00,71.4,53.0,29.81,North,355,4.0,-999.0,49,-99.99,,,0.00,0.0,cwc,2013-07-19 05:55:00,